STARLINK-30170 (57431 NORAD) Tracking and Keplerian Element Data

This shows tracking and keplerian element data for the satellite.

Feedback or suggestion? Click here.




ElementValue
Catalog57431
NameSTARLINK-30170
Epoch Orbit2720
Epoch Day12.84502092
Epoch Year2024
RAAN217.5779
Inclination43.0038
Eccentricity0.0001436
Argument of Perigee270.3914
Mean Anonmoly89.6763
Mean Motion15.0254081
Decay Rate-7.42E-06
L11 57431U 23105B 24012.84502092 -.00000742 00000+0 -39867-4 0 9991
L22 57431 43.0038 217.5779 0001436 270.3914 89.6763 15.02540810 27204



Live tracking and technical data element details for STARLINK-30170 (NORAD 57431). STARLINK-30170 can be tracked NOW for your location showing map with azimuth and elevation plus other details from your city location.







IsCatalogInMostPopularTable: catalog: 57431, numindb: 5
Update: records affected: 1



GetName: 57431 STARLINK-30170

Hit Count: updated at: Thu, 22 Feb 2024 02:12:55 GMT